Theta_e
301 299 301 301 301 301 301 302 303 303 303 303 303 303 303 303 303 302 303 303 304 306 306 304 305 305 306 307 310 322 330 330 331 332 331 330 329 330 332 331 330 329 329 325
298 299 301 302 302 302 302 304 303 303 303 303 303 303 303 303 301 303 304 306 306 306 306 306 305 304 304 305 307 310 322 328 330 331 331 331 330 332 330 330 330 331 329 326
300 300 301 301 300 303 303 304 304 304 302 302 302 303 302 301 302 305 307 307 307 306 305 304 305 306 307 305 305 309 318 326 329 330 331 330 330 331 330 330 330 330 329 325
299 300 300 300 302 303 304 302 301 302 302 300 303 304 303 302 302 305 307 307 306 306 303 303 304 305 306 309 307 306 316 314 327 330 331 331 330 330 330 330 330 329 327 324
296 299 299 300 302 303 302 300 301 301 302 304 303 305 303 302 303 308 306 304 304 304 302 301 302 303 304 305 309 308 316 321 321 328 330 331 329 330 329 330 328 328 325 323
298 298 299 300 301 299 299 300 300 300 303 298 303 306 304 304 308 307 303 302 302 301 301 300 300 301 302 303 306 309 311 323 325 326 329 330 328 329 329 330 329 328 324 323
295 296 297 299 298 299 300 298 293 296 294 298 303 304 305 305 307 303 301 302 302 301 300 299 299 299 300 301 304 308 313 322 324 325 327 329 328 328 329 329 329 327 324 323
293 292 296 297 297 298 300 297 294 299 298 302 304 306 306 307 304 304 303 302 302 300 300 299 298 298 297 299 302 304 313 318 322 324 324 325 327 327 328 329 328 327 325 323
292 294 296 295 296 298 297 296 300 304 298 304 304 304 304 304 304 304 304 302 301 299 298 297 296 296 296 298 301 302 308 316 322 322 325 326 326 326 327 328 326 326 324 323
296 292 295 296 297 299 298 300 299 296 301 301 302 305 305 305 305 304 303 302 299 298 295 294 294 295 296 296 299 301 303 313 320 322 323 323 323 324 325 326 325 323 323 321
297 294 294 294 298 297 294 293 299 302 303 305 305 304 303 305 304 304 302 300 298 294 293 293 293 294 295 296 298 301 303 308 320 322 322 323 323 322 322 322 319 317 315 314
296 293 293 293 294 294 297 296 301 301 302 302 303 302 303 305 304 302 300 298 294 293 292 292 293 294 295 297 298 300 304 307 313 320 321 323 322 319 318 317 318 312 309 304
293 288 289 289 293 295 297 299 299 300 298 299 302 302 304 304 302 299 299 294 293 292 291 292 293 293 294 296 301 303 305 307 313 320 322 321 320 319 317 312 313 307 304 301
297 291 287 288 292 293 294 296 296 297 299 301 303 303 305 303 299 298 294 293 291 291 291 291 292 293 293 296 299 305 308 308 313 319 320 320 316 314 311 308 305 305 302 300
294 290 287 291 293 293 294 294 296 296 298 300 303 304 304 299 297 298 293 291 290 290 290 290 291 292 292 294 298 302 308 309 314 317 318 312 311 308 307 305 301 301 300 300
293 287 293 289 293 294 293 295 296 297 299 301 304 303 300 297 297 294 292 290 289 289 288 289 289 291 291 292 295 299 301 306 309 311 309 309 304 302 301 299 300 298 299 299
292 289 286 286 290 291 293 299 302 300 302 303 304 301 298 296 297 293 291 290 289 288 288 288 288 289 290 291 293 295 296 297 300 299 301 299 300 299 299 298 298 297 297 297
288 288 286 286 284 287 298 293 294 297 300 302 301 297 296 296 296 295 291 289 288 288 288 288 288 288 289 291 291 291 294 294 294 294 294 296 300 297 297 297 296 296 295 295
294 291 288 282 286 289 295 300 299 299 301 299 296 295 295 296 297 296 292 289 288 288 288 287 288 288 289 289 289 290 290 291 292 292 291 293 296 296 295 296 295 294 291 288
293 293 286 279 287 284 293 298 297 298 302 298 293 294 295 296 296 294 292 291 291 289 288 288 288 288 289 288 289 289 288 289 288 289 291 294 295 295 294 294 294 289 289 286
287 291 288 280 284 285 290 292 297 297 299 297 293 293 294 296 294 292 293 293 292 292 291 291 291 289 288 290 291 290 290 290 291 293 294 294 294 294 294 292 290 287 285 286
287 287 284 284 285 288 291 295 296 297 298 296 293 295 296 295 295 295 294 294 295 294 294 294 293 292 292 294 296 295 294 293 294 294 294 294 294 292 288 286 285 286 286 287
287 289 288 288 289 292 295 299 300 299 296 295 293 296 299 297 296 295 294 295 296 296 295 295 295 295 295 296 295 294 293 294 294 293 290 287 286 285 286 286 287 287 287 287
287 289 291 292 292 291 294 295 296 296 297 294 293 297 299 299 297 297 296 295 296 295 295 296 296 295 294 294 294 292 290 289 288 287 287 287 287 287 287 287 287 288 287 287
288 288 286 288 291 292 294 294 296 297 297 294 293 296 299 298 298 297 296 296 296 294 293 291 289 288 287 287 287 287 287 287 288 288 288 288 289 288 289 288 287 286 285 285
287 287 290 290 292 292 293 294 294 293 294 294 293 295 297 298 298 298 297 296 296 295 288 288 288 288 287 287 287 287 287 287 288 289 290 291 291 290 290 288 286 285 284 285
Wind_Speed
6 6 4 4 2 4 6 5 12 12 13 5 15 22 22 32 24 18 20 19 15 17 19 17 18 22 24 24 24 30 34 40 45 43 44 41 42 47 42 42 39 38 37 37
4 3 1 4 3 5 5 7 11 11 6 15 15 24 27 17 8 3 8 13 19 26 27 22 14 16 20 22 26 28 35 38 44 48 47 44 43 45 40 42 41 41 41 33
1 1 4 3 5 4 4 6 6 13 16 16 5 8 12 7 3 2 6 13 20 23 30 31 24 17 14 19 25 25 30 38 42 45 47 47 46 47 45 44 42 42 36 32
4 3 4 4 2 2 9 1 9 16 12 4 6 5 8 5 6 3 12 20 24 25 35 34 29 23 19 16 19 28 30 32 39 45 51 53 52 51 50 49 45 40 35 33
3 5 5 3 3 3 9 10 16 14 9 7 1 4 8 9 3 5 10 19 22 26 28 33 30 29 23 19 18 23 27 34 36 44 53 54 51 52 48 47 43 37 33 37
5 6 3 3 3 3 9 8 9 1 1 2 3 1 8 6 3 3 10 18 25 29 35 33 32 31 29 22 19 21 26 28 34 39 51 54 50 52 50 46 44 41 39 35
8 3 3 2 5 4 9 6 4 6 4 4 1 5 11 1 3 3 10 19 27 29 32 39 39 39 36 29 19 17 21 27 32 35 48 51 51 50 50 49 47 45 43 39
4 9 4 3 1 4 5 2 4 5 4 12 14 7 5 5 2 16 23 24 34 33 32 32 36 40 40 33 24 18 19 25 31 39 37 45 51 48 50 49 47 47 47 44
4 6 3 3 3 4 5 2 4 5 4 5 4 6 4 2 14 27 32 32 33 34 32 39 37 35 33 31 25 20 19 25 30 35 39 41 49 47 50 50 48 49 50 49
1 6 2 5 4 1 4 3 4 3 5 6 5 6 7 7 20 22 18 27 34 31 36 35 34 33 33 30 27 21 20 23 27 31 35 34 43 47 48 50 49 51 52 50
2 3 6 4 1 1 4 4 2 3 3 4 6 5 4 8 21 20 22 30 29 37 37 36 35 31 30 28 26 22 20 22 26 27 36 37 39 44 49 49 47 48 49 49
1 3 5 7 8 6 3 4 1 2 4 4 5 7 3 11 21 30 30 25 33 35 34 35 31 29 26 23 23 21 18 22 17 34 32 37 38 39 39 37 38 39 38 35
2 2 5 9 5 3 2 2 1 3 3 7 4 7 16 21 26 36 25 33 34 35 36 33 28 26 21 20 16 16 14 18 20 34 32 34 35 34 31 31 35 35 36 36
5 3 7 6 8 2 9 12 12 6 4 4 9 19 25 24 27 27 26 31 33 31 33 29 26 22 18 14 11 5 15 21 26 35 30 32 32 29 27 27 27 29 32 32
3 4 3 10 19 14 15 19 17 8 14 5 13 21 20 26 25 19 30 31 31 31 31 30 25 19 15 9 2 11 18 25 31 34 34 33 30 29 29 30 33 38 37 36
1 3 3 5 3 3 13 17 16 14 13 13 13 22 19 35 33 19 29 30 29 30 33 31 24 19 15 12 8 13 21 26 29 33 35 33 33 33 34 42 44 43 44 43
4 1 3 6 6 10 4 5 4 6 7 4 12 18 20 21 20 20 30 29 27 29 29 28 26 21 16 16 14 16 20 23 28 33 37 39 41 43 46 48 49 48 47 45
3 2 0 4 8 4 4 6 7 8 12 5 9 14 18 19 28 18 32 29 28 26 25 25 23 22 19 18 22 24 21 26 33 38 43 46 46 52 54 53 50 48 45 41
5 2 2 1 2 8 6 2 2 1 5 3 8 13 20 26 15 7 34 27 23 21 19 19 19 20 21 22 24 29 34 35 38 41 44 49 52 52 51 50 47 42 39 36
4 4 3 1 1 4 5 3 2 4 4 3 4 11 17 21 10 6 26 26 25 21 18 18 18 20 22 24 24 32 37 40 43 45 48 50 50 48 47 45 41 37 33 31
3 3 5 4 4 9 12 12 2 3 5 10 12 11 12 5 5 16 17 22 20 22 23 22 22 24 26 25 28 37 40 43 42 44 44 43 43 41 39 38 34 31 29 27
7 8 4 4 3 7 15 1 4 2 7 7 11 10 10 9 12 13 14 19 22 22 22 23 25 30 31 32 34 39 40 38 38 39 40 37 35 33 31 30 29 26 23 22
3 7 4 10 7 6 9 9 10 9 15 7 8 7 7 8 12 10 11 14 18 21 22 23 26 28 30 32 32 38 38 35 35 34 33 30 28 27 25 23 23 20 18 16
5 9 4 1 5 17 28 26 29 28 12 7 5 4 4 5 6 6 7 9 12 14 15 17 19 23 27 27 28 30 30 29 29 29 28 26 24 23 20 17 15 14 14 12
5 10 5 6 15 22 28 25 15 9 10 6 5 1 2 2 3 4 5 6 8 11 12 12 15 17 19 19 21 22 21 21 23 24 24 22 20 19 18 16 14 12 13 9
13 7 6 7 11 4 4 5 5 19 22 14 7 3 4 2 4 4 4 6 7 9 10 11 13 14 16 16 17 17 15 13 15 18 18 17 15 12 12 14 16 15 12 10
Wind_Direction
4 53 43 345 302 253 261 261 283 282 288 299 284 297 296 284 297 294 304 318 338 354 344 296 279 264 259 256 254 246 241 234 232 226 218 224 226 224 226 226 235 222 224 223
16 66 359 298 308 278 280 286 294 294 321 313 302 299 282 290 264 329 17 26 18 11 8 3 328 272 258 259 259 254 244 237 232 232 230 229 228 224 228 228 230 225 223 220
159 250 326 28 321 337 296 268 295 294 318 295 312 285 295 318 272 176 38 4 1 357 354 353 350 335 299 262 243 250 250 239 232 233 229 225 227 230 226 228 232 221 222 215
229 305 354 330 303 31 313 341 304 291 330 290 45 285 304 303 303 45 354 357 347 344 343 346 340 334 323 300 256 237 240 243 236 232 223 228 229 226 228 228 223 218 211 216
287 328 351 327 348 355 263 320 286 294 286 287 304 257 280 288 323 16 352 340 345 333 334 335 333 329 322 309 288 247 229 240 239 228 225 231 231 229 229 227 221 220 211 209
267 302 243 253 302 263 294 301 299 296 270 5 238 183 286 296 21 331 335 338 337 331 330 328 328 324 320 311 290 260 236 235 239 234 225 229 228 227 227 226 216 215 207 212
328 272 292 359 349 341 357 354 341 357 1 233 187 289 248 325 79 324 319 327 334 328 324 328 328 322 316 311 292 268 238 228 237 234 224 229 233 236 231 228 219 217 211 212
20 329 22 18 119 287 320 101 126 293 299 293 283 233 266 123 259 341 332 327 336 332 326 322 316 311 310 304 294 271 234 229 226 231 231 231 232 234 235 229 229 222 217 212
17 282 313 258 224 135 294 350 220 269 266 271 264 291 279 334 343 344 339 332 327 325 324 316 312 310 307 301 292 275 244 226 217 227 228 230 227 232 231 230 225 221 218 212
190 297 274 298 325 238 165 301 353 337 313 293 274 282 261 341 342 332 326 325 323 324 320 317 314 309 304 298 292 274 252 223 218 214 222 225 224 225 230 229 225 218 214 202
110 132 292 343 121 103 340 352 341 268 241 290 308 280 218 340 338 330 328 326 329 324 320 318 316 309 302 296 294 277 250 229 210 208 217 222 221 226 223 221 211 205 196 192
105 178 278 264 279 258 246 203 127 259 311 276 264 269 275 327 337 332 326 333 328 326 323 324 322 314 310 301 291 276 245 227 216 202 212 217 218 216 218 217 214 205 195 181
199 333 318 347 353 16 311 224 233 302 262 239 274 279 313 327 332 331 335 338 334 328 330 334 332 329 317 307 294 276 238 206 204 202 206 209 211 205 209 201 198 193 182 171
181 163 183 211 244 11 296 292 285 270 261 274 260 290 316 333 327 327 347 339 337 335 337 341 347 342 338 328 313 229 196 194 193 191 198 201 197 195 193 187 180 173 167 156
114 240 199 249 263 273 269 273 284 258 251 261 289 304 325 329 325 339 346 343 342 343 348 357 3 5 2 6 358 162 170 177 184 188 184 180 179 175 170 168 163 158 154 150
86 271 316 288 282 113 284 275 262 261 266 266 288 309 336 325 327 349 351 346 346 350 359 8 18 26 35 52 85 141 151 166 175 175 167 168 162 155 149 151 150 152 148 148
165 122 14 272 323 313 332 244 255 268 244 253 325 314 324 322 329 7 350 349 350 356 8 21 31 41 54 72 93 118 134 147 153 150 150 149 148 147 148 148 147 148 145 146
127 87 116 280 329 14 250 302 247 246 280 254 275 310 321 319 324 11 5 356 358 10 19 30 44 56 71 91 102 113 127 137 140 139 141 144 145 146 147 147 145 142 143 141
216 160 279 209 256 294 303 217 347 30 285 223 300 324 332 334 330 11 7 13 13 18 30 44 57 72 84 94 107 116 120 128 132 132 135 139 142 141 142 140 140 137 131 129
205 160 126 69 143 234 242 182 359 165 280 206 338 335 341 347 16 344 359 17 27 33 40 54 69 82 91 101 115 117 117 122 122 130 133 136 138 138 136 133 132 128 133 137
185 186 212 197 253 283 250 260 280 77 270 347 355 348 349 2 347 332 5 23 34 44 52 57 68 81 96 107 114 114 118 115 122 127 129 130 130 131 129 125 124 136 139 136
172 160 204 172 211 284 208 6 195 172 342 328 346 357 0 359 8 14 21 38 46 53 63 71 81 90 97 101 104 106 108 115 119 120 119 121 119 116 121 129 134 136 136 136
248 193 179 190 217 250 198 241 235 268 326 302 336 356 13 6 18 21 31 52 59 61 71 80 87 95 99 102 104 107 109 113 113 110 111 116 122 124 128 130 128 131 136 143
242 185 225 129 254 236 257 261 260 275 255 302 319 356 33 15 17 43 54 66 74 76 84 90 95 99 103 106 109 109 116 120 124 123 122 123 124 123 124 124 127 133 134 137
217 152 192 263 279 268 263 255 250 221 223 281 285 316 91 63 45 54 76 81 95 90 96 105 104 107 109 112 112 115 119 124 125 125 124 126 127 130 132 134 133 136 135 132
187 193 176 224 230 207 255 311 286 224 236 251 225 183 150 107 80 69 95 102 106 116 114 119 117 118 117 118 116 116 119 127 129 131 131 131 133 141 151 157 158 158 164 168